Weather History for Hanford, CA

Change the Weather History Date:

Monday, April 2, 2012

  Actual Average Record
Temperature  
Mean Temperature 53 °F 58 °F  
Max Temperature 67 °F 71 °F 87 °F (1944)
Min Temperature 38 °F 44 °F 34 °F (2010)
Degree Days  
Heating Degree Days 12    
Month to date heating degree days 23  
Since 1 July heating degree days 2515  
Cooling Degree Days 0    
Month to date cooling degree days 0  
Year to date cooling degree days 0  
Growing Degree Days 2 (Base 50)    
Moisture  
Dew Point 40 °F    
Average Humidity 65    
Maximum Humidity 92    
Minimum Humidity 37    
Precipitation  
Precipitation 0.00 in 0.03 in 0.23 in (2003)
Month to date precipitation 0.05 0.06  
Year to date precipitation 2.81 5.46  
Since 1 July precipitation 4.05 8.80  
Snow  
Snow 0.00 in - - ()
Month to date snowfall 0.0  
Since 1 July snowfall 0.0  
Snow Depth 0.00 in    
Sea Level Pressure  
Sea Level Pressure 30.14 in    
Wind  
Wind Speed 3 mph (ESE)    
Max Wind Speed 8 mph    
Max Gust Speed 13 mph    
Visibility 10 miles    
Events      
T = Trace of Precipitation, MM = Missing Value Source: NWS Daily Summary

Daily Weather History Graph

Daily Weather History Graph

Search for Another Location

Airport:

Trip Planner

Search our weather history database for the weather conditions in past years. The results will help you decide how hot, cold, wet, or windy it might be!

Date:

Astronomy

Apr. 02, 2012 Rise Set
Actual Time 6:42 AM PDT 7:21 PM PDT
Civil Twilight 6:16 AM PDT 7:47 PM PDT
Nautical Twilight 5:45 AM PDT 8:18 PM PDT
Astronomical Twilight 5:14 AM PDT 8:50 PM PDT
Moon 3:10 PM PDT (4/2) 3:51 AM PDT (4/2)
Length of Visible Light 13h 31m
Length of Day
12h 39m
Waxing Gibbous, 79% of the Moon is Illuminated
Apr 2
Waxing Gibbous
Apr 6
Full
Apr 13
Last Quarter
Apr 21
New
Apr 29
First Quarter

Hourly Weather History & Observations

Time (PDT) Temp. Windchill Dew Point Humidity Pressure Visibility Wind Dir Wind Speed Gust Speed Precip Events Conditions
12:53 AM 48.9 °F - 37.0 °F 64% 30.21 in 10.0 mi West 5.8 mph - N/A   Clear
1:53 AM 46.9 °F - 36.0 °F 66% 30.22 in 10.0 mi NW 5.8 mph - N/A   Clear
2:53 AM 46.0 °F - 36.0 °F 68% 30.20 in 10.0 mi Calm Calm - N/A   Clear
3:53 AM 39.9 °F 37.8 °F 35.1 °F 83% 30.20 in 10.0 mi South 3.5 mph - N/A   Clear
4:53 AM 39.0 °F - 34.0 °F 82% 30.20 in 10.0 mi Calm Calm - N/A   Clear
5:53 AM 39.9 °F 35.8 °F 35.1 °F 83% 30.21 in 10.0 mi West 5.8 mph - N/A   Clear
6:53 AM 39.9 °F - 37.0 °F 89% 30.22 in 10.0 mi Calm Calm - N/A   Clear
7:53 AM 45.0 °F - 39.9 °F 82% 30.22 in 10.0 mi Calm Calm - N/A   Clear
8:53 AM 51.1 °F - 41.0 °F 68% 30.22 in 10.0 mi Variable 3.5 mph - N/A   Clear
9:53 AM 52.0 °F - 41.0 °F 66% 30.20 in 10.0 mi Calm Calm - N/A   Clear
10:53 AM 54.0 °F - 43.0 °F 66% 30.20 in 10.0 mi Variable 3.5 mph - N/A   Partly Cloudy
11:53 AM 57.0 °F - 41.0 °F 55% 30.17 in 10.0 mi Variable 3.5 mph - N/A   Clear
12:53 PM 60.1 °F - 41.0 °F 49% 30.14 in 10.0 mi SE 6.9 mph - N/A   Clear
1:53 PM 63.0 °F - 42.1 °F 46% 30.12 in 10.0 mi Calm Calm - N/A   Clear
2:53 PM 62.1 °F - 42.1 °F 48% 30.09 in 10.0 mi ESE 3.5 mph - N/A   Clear
3:53 PM 64.9 °F - 41.0 °F 42% 30.07 in 10.0 mi Calm Calm - N/A   Clear
4:53 PM 66.9 °F - 39.0 °F 36% 30.05 in 10.0 mi ENE 6.9 mph - N/A   Clear
5:53 PM 64.9 °F - 41.0 °F 42% 30.04 in 10.0 mi East 5.8 mph - N/A   Clear
6:53 PM 64.0 °F - 42.1 °F 45% 30.04 in 10.0 mi Calm Calm - N/A   Clear
7:53 PM 59.0 °F - 43.0 °F 55% 30.04 in 10.0 mi Calm Calm - N/A   Clear
8:53 PM 57.9 °F - 41.0 °F 53% 30.05 in 10.0 mi Calm Calm - N/A   Clear
9:53 PM 55.0 °F - 42.1 °F 62% 30.06 in 10.0 mi Calm Calm - N/A   Clear
10:53 PM 52.0 °F - 42.1 °F 69% 30.06 in 10.0 mi Calm Calm - N/A   Clear
11:53 PM 53.1 °F - 43.0 °F 69% 30.07 in 10.0 mi Calm Calm - N/A   Clear